Showing default

RADUGA 25, 20499

Orbit data source: Space-Track

RADUGA 25, 20499 is a payload satellite owned by UNKS (CIS) in GEO that was launched on Thu, 15 Feb 1990 UTC via a PROTON-K/DM-2 launch vehicle from the Tyuratam Missile And Space Complex (TTMTR). Payloads include a variety of satellites, spacecraft, and rockets equipped with specific instruments for various scientific and technological missions. These include communications satellites like Starlink; space stations such as the ISS; scientific satellites like the Hubble; Earth observation satellites from companies like Planet Labs, Umbra, and HawkEye 360; GPS; miniature CubeSats for education and research; and military/defense satellites.

Loading next visibility...
RADUGA 25 details
Identifier
20499, 1990-016A
Orbit
GEO
Last TLE update18 hours ago
Origin
Flag of CISUNKS (CIS)
ManufacturerNPO PM
MissionNon-operational Defense Communications
Bus & MotorRADUGA, Unknown motor
Mass1,965 kg wet, ~1,800 kg dry
Launch date (UTC)
1990-02-15 (35 years ago)
Launch vehicle
PROTON-K/DM-2
Launch site
Tyuratam Missile And Space Complex (TTMTR)
Object type
Payload
Rocket body
Debris
Shape & HBRCyl + 2 Pan, 9.5 m
Radar Cross Section16.975 m², Large (>1 m²)

Expand to show TLE details & history

TLE from 18 hours ago
0 RADUGA 25
1 20499U 90016A   24325.55580538 -.00000281  00000-0  00000-0 0  9997
2 20499  12.9257 338.7050 0006082 203.2719   4.0964  1.00364766127150
Epoch: 2024-11-20T13:20Z
Definitive object data (Epoch: 2024-11-20T13:20:21.584Z)
Latitude-5.9188°
Longitude-74.66338°
Altitude35,735.563 km
Speed3.077 km/s
True Right ascension12h 21m 54s
True Declination-5° 54' 46"
Sunlit
Object was in daylight at TLE epoch
Visualization TLE readout
Latitude11.92268°
Longitude-168.22708°
Altitude35,759.863 km
Speed3.076 km/s
Apparent Right ascension06h 23m 33s
Apparent Declination7° 05' 50"
Sunlit
Object is in daylight
Visualization observer readout
Local Sidereal Time04:00:39
Azimuth126.076° SE
Elevation44.199°
Doppler factor1
Orbital elements
Apogee altitude35,787.171 km
Perigee altitude35,735.912 km
Semi-major axis42,139.679 km
Eccentricity0.0006082
Inclination12.9257°
RAAN338.705°
Arg. of periapsis203.2719°
True anomaly4.10138°
Mean anomaly4.0964°
Eccentric anomaly4.09889°
Mean motion0.2509 °/min
BSTARUnknown
Orbital period1434.82 mins
Loading historical data...
20499 neighbors
Authenticating...
Loading maneuver chart data...
Loading historical data...
Loading historical data...
Loading historical data...
Loading historical data...
Loading historical data...
Loading historical data...
Loading historical data...

RADUGA 25 Visibility forecast

Observer location: undefined°, undefined

Span
Click to sort rows by Start time (UTC) header in descending order
Start Az.
Max El. time (UTC)
Max El. Az.
Max El.
End time (UTC)
End Az.
1440 mins2024-11-21 06:58:02.126Z126.094° SE2024-11-22 05:04:02.126Z125.51° SE35.39°2024-11-22 06:58:02.126Z125.796° SE
|